Powrót do katalogu

STARLINK-3919

AktywnyŁącznośćVLEO
NORAD 52580·PAYLOAD·🇺🇸 United States

Wystrzelony May 13, 2022 z Vandenberg Space Force Base

Loading…

Następne Przeloty (najbliższe 24 godziny)

TLE

ŚwieżeSource: CelesTrak SupGP

Epoka: Sep 15, 2026, 01:53 UTC

1 52580C 22051AW  26258.07895833  .00024779  00000+0  79694-3 0  2580
2 52580  53.1597 359.0685 0000970  91.9393 130.1855 15.31685276    16

Śledź STARLINK-3919 w czasie rzeczywistym z AllMySat

Download on the App Store